Location: Follega
(52.8850°N, 5.7362°E)
Time: 04:35:59
(UTC+00:00)

Cosmos 2297 Rocket - Pass Details

Date: 10 October 2020
Orbit: 838 x 845 km, 71.0° (Epoch: 26 October)

Event Time Altitude Azimuth Distance (km) Brightness Sun altitude
Rises 20:32:17 0° 328° (NNW) 3,417 6.3 -32.5°
Reaches altitude 10° 20:34:45 10° 331° (NNW) 2,479 5.3 -32.8°
Enters shadow 20:38:37 43° 347° (NNW) 1,174 3.1 -33.2°
